SV2BZQ-2 Thessalonik GR current weather conditions

sailwx.info

Wind from 016 at 4 knots gusting 10

Air temperature 28.3° C
Dewpoint 20.9° C

Last reported at 2016-Jul-26 07:53 UTC.
Time now 2016-Jul-26 08:24 UTC

Location: N 40°41' E 022°51'.
View on Google Maps.

See reports from other nearby stations

  
Tides and Currents Weather Stations Pressure Air Temp Water Temp Dewpoint Dewpoint Depression Visibility Wind Speed Wind Dir Waves Ship Positions
date/time (UTC)wind fromknots sea level pressurealtimeterstation pressurevisibilityair tempwater tempwave heightnotes
2016-Jul-26 07:53 016 4 gusting 10 28.3
2016-Jul-26 07:49 320 4 gusting 9 28.3
2016-Jul-26 07:43 313 5 gusting 8 27.8
2016-Jul-26 07:39 290 4 gusting 8 27.8
2016-Jul-26 07:33 299 4 gusting 10 27.2
2016-Jul-26 07:29 322 4 gusting 10 27.2
2016-Jul-26 07:23 321 5 gusting 9 26.7
2016-Jul-26 07:19 307 5 gusting 9 26.7
2016-Jul-26 07:15 329 5 gusting 8 26.7
2016-Jul-26 07:09 309 6 gusting 11 26.7
2016-Jul-26 07:05 312 6 gusting 11 26.1
2016-Jul-26 06:59 324 4 gusting 10 26.1
2016-Jul-26 06:54 323 5 gusting 10 26.1
2016-Jul-26 06:48 322 5 gusting 10 25.6
2016-Jul-26 06:44 307 5 gusting 10 25.6
2016-Jul-26 06:38 311 5 gusting 10 25.6
2016-Jul-26 06:34 298 6 gusting 10 25.0
2016-Jul-26 06:28 340 6 gusting 9 25.0
2016-Jul-26 06:24 326 6 gusting 10 25.0
2016-Jul-26 06:18 305 6 gusting 10 25.0
2016-Jul-26 06:14 331 4 gusting 10 25.0
2016-Jul-26 06:10 306 5 gusting 7 25.0
2016-Jul-26 06:04 331 6 gusting 10 25.0
2016-Jul-26 05:59 316 6 gusting 12 25.0
2016-Jul-26 05:53 326 5 gusting 12 25.0
2016-Jul-26 05:49 304 4 gusting 10 25.0
2016-Jul-26 05:44 339 4 gusting 7 25.0
2016-Jul-26 05:39 325 4 gusting 7 25.0
2016-Jul-26 05:33 309 4 gusting 7 25.0
2016-Jul-26 05:29 315 5 gusting 8 25.6
2016-Jul-26 05:23 286 4 gusting 8 25.6
2016-Jul-26 05:19 322 4 gusting 7 25.6
2016-Jul-26 05:13 321 5 gusting 8 25.6
2016-Jul-26 05:09 306 5 gusting 8 25.6
2016-Jul-26 05:03 321 4 gusting 8 25.6
2016-Jul-26 05:00 320 3 gusting 8 25.6
2016-Jul-26 04:53 317 4 gusting 8 25.6
2016-Jul-26 04:49 310 4 gusting 8 25.6
2016-Jul-26 04:43 355 5 gusting 8 25.6
2016-Jul-26 04:39 330 4 gusting 8 25.6
2016-Jul-26 04:33 308 3 gusting 7 25.6
2016-Jul-26 04:30 294 1 gusting 7 25.6
2016-Jul-26 04:23 317 4 gusting 7 25.6
2016-Jul-26 04:19 317 3 gusting 7 25.6
2016-Jul-26 04:15 337 3 gusting 6 25.6
2016-Jul-26 04:09 316 2 gusting 5 26.1
2016-Jul-26 04:05 284 2 gusting 5 26.1
2016-Jul-26 03:59 295 2 gusting 6 26.1
2016-Jul-26 03:55 294 2 gusting 6 26.1
2016-Jul-26 03:48 295 1 gusting 4 26.1
2016-Jul-26 03:44 329 1 gusting 4 26.1
2016-Jul-26 03:38 329 2 gusting 4 26.1
2016-Jul-26 03:34 290 1 gusting 3 26.1
2016-Jul-26 03:28 287 2 gusting 5 26.1
2016-Jul-26 03:24 286 2 gusting 5 26.1
2016-Jul-26 03:18 296 1 gusting 3 26.7
2016-Jul-26 03:14 296 0 gusting 2 26.7
2016-Jul-26 03:08 295 1 gusting 3 26.7
2016-Jul-26 03:04 296 1 gusting 4 26.7
2016-Jul-26 02:58 296 2 gusting 6 26.7
2016-Jul-26 02:54 296 3 gusting 6 26.7
2016-Jul-26 02:48 296 2 gusting 6 27.2
2016-Jul-26 02:44 292 1 gusting 6 27.2
2016-Jul-26 02:38 055 0 gusting 3 27.2
2016-Jul-26 02:33 057 0 gusting 3 27.2
2016-Jul-26 02:29 086 0 gusting 4 27.2
2016-Jul-26 02:23 049 0 gusting 4 27.2
2016-Jul-26 02:19 063 0 gusting 4 27.2
2016-Jul-26 02:13 299 27.2
2016-Jul-26 02:09 298 27.2
2016-Jul-26 02:03 296 27.2
2016-Jul-26 01:59 295 0 gusting 3 27.2
2016-Jul-26 01:53 295 0 gusting 4 27.2
2016-Jul-26 01:49 290 27.2
2016-Jul-26 01:45 072 0 gusting 6 27.2
2016-Jul-26 01:38 073 1 gusting 6 27.2
2016-Jul-26 01:34 065 2 gusting 6 27.2
2016-Jul-26 01:28 055 1 gusting 6 27.2
2016-Jul-26 01:24 037 0 gusting 4 27.2
2016-Jul-26 01:18 060 27.2
2016-Jul-26 01:14 069 27.2
2016-Jul-26 01:08 071 27.2
2016-Jul-26 01:04 071 27.2
2016-Jul-26 00:58 163 27.2
2016-Jul-26 00:54 163 27.2
2016-Jul-26 00:48 067 27.2
2016-Jul-26 00:44 066 27.2
2016-Jul-26 00:40 065 27.2
2016-Jul-26 00:34 066 27.2
2016-Jul-26 00:30 068 27.2
2016-Jul-26 00:24 067 27.2
2016-Jul-26 00:20 067 27.2
2016-Jul-26 00:13 068 27.2
2016-Jul-26 00:10 068 0 gusting 2 27.2
2016-Jul-26 00:04 105 27.2
2016-Jul-25 23:59 108 27.2
2016-Jul-25 23:53 111 27.2
2016-Jul-25 23:49 111 27.2
2016-Jul-25 23:43 113 27.2
2016-Jul-25 23:39 113 27.8
2016-Jul-25 23:33 113 27.8
2016-Jul-25 23:29 113 27.2
2016-Jul-25 23:23 114 27.8
2016-Jul-25 23:19 114 27.8
2016-Jul-25 23:15 114 27.8
2016-Jul-25 23:09 114 27.8
2016-Jul-25 23:05 114 27.8
2016-Jul-25 22:59 114 27.8
2016-Jul-25 22:54 114 27.8
2016-Jul-25 22:48 146 27.8
2016-Jul-25 22:44 146 27.8
2016-Jul-25 22:38 146 27.8
2016-Jul-25 22:34 165 27.8
2016-Jul-25 22:29 166 27.2
2016-Jul-25 22:24 165 27.8
2016-Jul-25 22:18 165 27.8
2016-Jul-25 22:14 170 27.2
2016-Jul-25 22:08 171 27.2
2016-Jul-25 22:04 225 27.2
2016-Jul-25 21:58 227 27.2
2016-Jul-25 21:54 228 27.8
2016-Jul-25 21:48 229 27.8
2016-Jul-25 21:44 229 27.8
2016-Jul-25 21:40 229 27.8
2016-Jul-25 21:33 229 27.8
2016-Jul-25 21:29 229 27.8
2016-Jul-25 21:23 229 27.8
2016-Jul-25 21:19 229 27.8
2016-Jul-25 21:13 229 27.2
2016-Jul-25 21:09 229 27.8
2016-Jul-25 21:03 229 27.2
2016-Jul-25 20:59 226 27.8
2016-Jul-25 20:53 226 27.8
2016-Jul-25 20:49 226 27.8
2016-Jul-25 20:40 226 27.8
2016-Jul-25 20:34 226 0 gusting 2 27.8
2016-Jul-25 20:28 226 0 gusting 2 27.8
2016-Jul-25 20:24 223 1 gusting 3 27.8
2016-Jul-25 20:18 221 0 gusting 3 27.8
2016-Jul-25 20:14 200 28.3
2016-Jul-25 20:10 196 28.3
2016-Jul-25 20:03 195 28.3
2016-Jul-25 19:59 195 28.3
2016-Jul-25 19:53 195 28.3
2016-Jul-25 19:49 195 28.3
2016-Jul-25 19:43 195 28.3
2016-Jul-25 19:39 195 28.3
2016-Jul-25 19:33 195 28.3
2016-Jul-25 19:29 195 27.8
2016-Jul-25 19:22 195 28.3
2016-Jul-25 19:19 195 28.3
2016-Jul-25 19:14 195 28.3
2016-Jul-25 19:08 195 28.3
2016-Jul-25 19:04 195 28.3
2016-Jul-25 18:59 195 28.3
2016-Jul-25 18:54 195 28.3
2016-Jul-25 18:48 195 28.3
2016-Jul-25 18:44 195 28.3
2016-Jul-25 18:40 195 28.3
2016-Jul-25 18:34 195 28.3
2016-Jul-25 18:30 195 28.3
2016-Jul-25 18:23 195 28.3
2016-Jul-25 18:19 195 28.3
2016-Jul-25 18:13 195 28.3
2016-Jul-25 18:09 195 28.3
2016-Jul-25 18:03 195 28.9
2016-Jul-25 17:59 195 28.9
2016-Jul-25 17:53 195 28.9
2016-Jul-25 17:49 195 28.9
2016-Jul-25 17:43 196 28.9
2016-Jul-25 17:39 195 28.9
2016-Jul-25 17:33 195 0 gusting 2 28.9
2016-Jul-25 17:29 195 0 gusting 4 28.9
2016-Jul-25 17:23 195 1 gusting 4 29.4
2016-Jul-25 17:19 195 1 gusting 3 29.4
2016-Jul-25 17:13 198 0 gusting 3 29.4
2016-Jul-25 17:09 200 1 gusting 4 29.4
2016-Jul-25 17:04 200 1 gusting 5 29.4
2016-Jul-25 16:58 199 1 gusting 5 30.0
2016-Jul-25 16:54 198 1 gusting 4 30.0
2016-Jul-25 16:48 199 2 gusting 6 30.0
2016-Jul-25 16:44 198 1 gusting 6 30.0
2016-Jul-25 16:38 205 1 gusting 5 30.6
2016-Jul-25 16:34 206 2 gusting 6 30.6
2016-Jul-25 16:28 192 2 gusting 6 30.6
2016-Jul-25 16:24 214 1 gusting 6 30.6
2016-Jul-25 16:20 167 1 gusting 5 30.6
2016-Jul-25 16:14 188 3 gusting 7 30.6
2016-Jul-25 16:10 172 3 gusting 7 30.6
2016-Jul-25 16:03 182 4 gusting 7 31.1
2016-Jul-25 15:59 164 4 gusting 7 31.1
2016-Jul-25 15:53 185 3 gusting 6 31.7
2016-Jul-25 15:49 177 3 gusting 7 31.7
2016-Jul-25 15:43 183 4 gusting 8 31.7
2016-Jul-25 15:39 145 3 gusting 8 31.7
2016-Jul-25 15:33 138 4 gusting 10 32.2
2016-Jul-25 15:29 202 5 gusting 10 32.2
2016-Jul-25 15:23 223 4 gusting 9 32.2
2016-Jul-25 15:19 167 4 gusting 9 32.2
2016-Jul-25 15:14 208 5 gusting 8 32.2
2016-Jul-25 15:09 171 4 gusting 9 32.2
2016-Jul-25 15:03 202 4 gusting 8 32.2
2016-Jul-25 14:59 192 5 gusting 10 32.2
2016-Jul-25 14:53 190 5 gusting 10 32.2
2016-Jul-25 14:49 186 5 gusting 11 32.8
2016-Jul-25 14:43 182 4 gusting 10 32.2
2016-Jul-25 14:39 196 4 gusting 7 32.8
2016-Jul-25 14:33 163 5 gusting 9 32.8
2016-Jul-25 14:29 159 4 gusting 9 32.8
2016-Jul-25 14:23 187 4 gusting 10 32.8
2016-Jul-25 14:19 166 4 gusting 10 32.8
2016-Jul-25 14:13 193 5 gusting 10 32.8
2016-Jul-25 14:09 213 5 gusting 10 32.8
2016-Jul-25 14:05 178 6 gusting 10 32.8
2016-Jul-25 13:59 207 5 gusting 10 32.8
2016-Jul-25 13:55 165 4 gusting 10 33.3
2016-Jul-25 13:49 155 4 gusting 10 33.3
2016-Jul-25 13:44 200 5 gusting 9 33.3
2016-Jul-25 13:38 213 5 gusting 10 33.3
2016-Jul-25 13:34 207 4 gusting 10 33.3
2016-Jul-25 13:28 199 4 gusting 9 33.3
2016-Jul-25 13:24 204 4 gusting 8 33.3
2016-Jul-25 13:18 192 4 gusting 8 33.3
2016-Jul-25 13:14 183 4 gusting 8 33.3
2016-Jul-25 13:08 148 4 gusting 8 33.3
2016-Jul-25 13:04 194 4 gusting 8 33.3
2016-Jul-25 12:58 198 4 gusting 8 33.3
2016-Jul-25 12:54 196 4 gusting 8 33.3
2016-Jul-25 12:48 167 4 gusting 7 33.3
2016-Jul-25 12:44 202 4 gusting 9 33.3
2016-Jul-25 12:38 151 4 gusting 8 33.3
2016-Jul-25 12:34 201 4 gusting 8 33.3
2016-Jul-25 12:28 211 5 gusting 8 33.3
2016-Jul-25 12:25 184 4 gusting 7 32.8
2016-Jul-25 12:18 157 4 gusting 7 33.3
2016-Jul-25 12:14 234 4 gusting 7 33.3
2016-Jul-25 12:09 155 3 gusting 6 33.3
2016-Jul-25 12:04 147 3 gusting 8 33.3
2016-Jul-25 12:00 227 4 gusting 8 32.8
2016-Jul-25 11:54 227 3 gusting 8 32.8
2016-Jul-25 11:49 186 4 gusting 10 32.8
2016-Jul-25 11:42 240 4 gusting 10 33.3
2016-Jul-25 11:39 168 5 gusting 10 33.3
2016-Jul-25 11:33 156 5 gusting 10 33.3
2016-Jul-25 11:29 168 5 gusting 9 33.3
2016-Jul-25 11:23 215 5 gusting 10 32.8
2016-Jul-25 11:19 221 5 gusting 10 33.3
2016-Jul-25 11:13 167 4 gusting 9 33.3
2016-Jul-25 11:09 194 3 gusting 8 33.3
2016-Jul-25 11:03 175 3 gusting 7 33.3
2016-Jul-25 10:59 188 4 gusting 12 32.8
2016-Jul-25 10:55 202 4 gusting 12 32.8
2016-Jul-25 10:49 097 5 gusting 11 32.8
2016-Jul-25 10:44 200 5 gusting 11 32.8
2016-Jul-25 10:38 227 4 gusting 7 32.8
2016-Jul-25 10:34 196 4 gusting 10 32.8
2016-Jul-25 10:28 211 5 gusting 10 32.2
2016-Jul-25 10:24 192 5 gusting 12 32.2
2016-Jul-25 10:18 239 5 gusting 12 32.8
2016-Jul-25 10:14 186 5 gusting 11 32.2
2016-Jul-25 10:10 174 6 gusting 11 32.2
2016-Jul-25 10:03 200 6 gusting 11 32.2
2016-Jul-25 09:59 206 5 gusting 11 32.2
2016-Jul-25 09:53 190 5 gusting 8 32.2
2016-Jul-25 09:49 215 5 gusting 8 32.8
2016-Jul-25 09:43 175 5 gusting 9 32.2
2016-Jul-25 09:39 205 5 gusting 9 32.2
2016-Jul-25 09:33 184 4 gusting 9 32.2
2016-Jul-25 09:29 180 4 gusting 10 31.7
2016-Jul-25 09:24 198 4 gusting 11 31.7
2016-Jul-25 09:19 169 4 gusting 11 31.7
2016-Jul-25 09:13 196 5 gusting 9 31.7
2016-Jul-25 09:09 238 6 gusting 12 31.7
2016-Jul-25 09:03 210 4 gusting 12 32.2
2016-Jul-25 08:59 141 4 gusting 8 31.7
2016-Jul-25 08:53 219 4 gusting 7 31.1
2016-Jul-25 08:49 226 3 gusting 6 31.7
2016-Jul-25 08:43 200 3 gusting 6 31.1
2016-Jul-25 08:39 222 3 gusting 6 31.1
2016-Jul-25 08:35 220 3 gusting 6 30.6
2016-Jul-25 08:28 222 4 gusting 7 30.6
2016-Jul-25 08:24 209 4 gusting 9 30.6
2016-Jul-25 08:18 198 4 gusting 9 30.6
2016-Jul-25 08:14 207 4 gusting 8 30.6
2016-Jul-25 08:08 205 5 gusting 10 30.6
2016-Jul-25 08:04 191 5 gusting 10 30.6
2016-Jul-25 07:58 212 4 gusting 8 30.6
2016-Jul-25 07:54 207 4 gusting 7 30.6
2016-Jul-25 07:48 221 4 gusting 7 30.6
2016-Jul-25 07:44 208 3 gusting 6 30.6
2016-Jul-25 07:39 216 4 gusting 7 30.0
2016-Jul-25 07:33 230 4 gusting 7 30.0
2016-Jul-25 07:29 222 4 gusting 7 30.0
2016-Jul-25 07:24 206 3 gusting 7 30.0
2016-Jul-25 07:19 211 3 gusting 6 30.0
2016-Jul-25 07:13 233 2 gusting 6 29.4
2016-Jul-25 07:09 213 3 gusting 6 29.4
2016-Jul-25 07:03 225 3 gusting 5 29.4
2016-Jul-25 06:59 222 3 gusting 5 29.4
2016-Jul-25 06:53 221 3 gusting 6 29.4
2016-Jul-25 06:49 217 3 gusting 6 29.4
2016-Jul-25 06:43 261 2 gusting 6 29.4
2016-Jul-25 06:40 259 1 gusting 6 28.9
2016-Jul-25 06:33 220 2 gusting 5 29.4
2016-Jul-25 06:29 225 1 gusting 5 28.9
2016-Jul-25 06:24 225 0 gusting 3 28.3
2016-Jul-25 06:19 226 0 gusting 2 28.3
2016-Jul-25 06:13 226 0 gusting 2 27.8
2016-Jul-25 06:09 226 0 gusting 2 27.2
2016-Jul-25 06:05 226 1 gusting 3 27.2
2016-Jul-25 05:59 226 1 gusting 3 27.2
2016-Jul-25 05:54 225 1 gusting 3 27.2
2016-Jul-25 05:49 225 0 gusting 2 26.7
2016-Jul-25 05:44 225 26.7
2016-Jul-25 05:39 225 26.7
2016-Jul-25 05:34 225 0 gusting 2 26.7
2016-Jul-25 05:28 225 1 gusting 3 26.7
2016-Jul-25 05:24 225 1 gusting 3 26.7
2016-Jul-25 05:18 225 2 gusting 6 26.7
2016-Jul-25 05:14 225 2 gusting 6 26.7
2016-Jul-25 05:09 223 3 gusting 6 26.7
2016-Jul-25 05:04 105 26.7
2016-Jul-25 04:58 105 26.7
2016-Jul-25 04:54 105 26.7
2016-Jul-25 04:48 105 26.7
2016-Jul-25 04:44 105 27.2
2016-Jul-25 04:38 105 26.7
2016-Jul-25 04:34 105 27.2
2016-Jul-25 04:30 105 27.2
2016-Jul-25 04:24 105 27.2
2016-Jul-25 04:20 105 27.2
2016-Jul-25 04:13 105 27.8
2016-Jul-25 04:09 105 27.8
2016-Jul-25 04:03 105 27.8
2016-Jul-25 03:59 105 27.8
2016-Jul-25 03:53 105 27.8
2016-Jul-25 03:49 105 0 gusting 3 27.8
2016-Jul-25 03:43 105 1 gusting 3 27.8
2016-Jul-25 03:39 096 1 gusting 4 27.8
2016-Jul-25 03:33 088 2 gusting 4 27.8
2016-Jul-25 03:29 070 3 gusting 8 27.8
2016-Jul-25 03:23 086 3 gusting 8 27.8
2016-Jul-25 03:19 057 2 gusting 7 27.8
2016-Jul-25 03:13 066 2 gusting 7 27.8
2016-Jul-25 03:09 069 2 gusting 7 28.3
2016-Jul-25 03:05 064 3 gusting 6 28.3
2016-Jul-25 02:59 051 2 gusting 6 28.3
2016-Jul-25 02:54 084 2 gusting 6 28.3
2016-Jul-25 02:48 086 2 gusting 7 28.3
2016-Jul-25 02:44 089 1 gusting 7 28.3
2016-Jul-25 02:38 102 1 gusting 3 28.3
2016-Jul-25 02:34 102 1 gusting 6 28.3
2016-Jul-25 02:29 102 2 gusting 6 28.3
2016-Jul-25 02:23 089 3 gusting 8 28.3
2016-Jul-25 02:19 083 4 gusting 8 28.3
2016-Jul-25 02:13 068 4 gusting 8 28.3
2016-Jul-25 02:09 038 3 gusting 7 28.3
2016-Jul-25 02:03 083 3 gusting 6 28.3
2016-Jul-25 01:59 059 2 gusting 6 28.3
2016-Jul-25 01:54 063 1 gusting 6 27.8
2016-Jul-25 01:48 076 2 gusting 6 27.8
2016-Jul-25 01:44 061 1 gusting 5 27.8
2016-Jul-25 01:38 065 0 gusting 5 27.8
2016-Jul-25 01:34 067 0 gusting 5 27.2
2016-Jul-25 01:28 044 0 gusting 3 27.2
2016-Jul-25 01:24 355 27.2
2016-Jul-25 01:20 355 27.2
2016-Jul-25 01:14 355 0 gusting 3 27.2
2016-Jul-25 01:10 355 1 gusting 3 27.2
2016-Jul-25 01:04 355 1 gusting 4 26.7
2016-Jul-25 00:59 355 1 gusting 4 26.7
2016-Jul-25 00:53 345 2 gusting 5 26.7
2016-Jul-25 00:49 322 2 gusting 5 26.7
2016-Jul-25 00:43 310 1 gusting 4 26.7
2016-Jul-25 00:39 291 0 gusting 3 26.7
2016-Jul-25 00:33 290 26.7
2016-Jul-25 00:29 290 26.7
2016-Jul-25 00:25 290 26.7
2016-Jul-25 00:18 290 26.7
2016-Jul-25 00:14 290 26.7
2016-Jul-25 00:09 290 26.1
2016-Jul-25 00:04 290 26.7
2016-Jul-24 23:58 290 26.7
2016-Jul-24 23:54 290 26.7
2016-Jul-24 23:48 290 26.7
2016-Jul-24 23:44 290 26.7
2016-Jul-24 23:38 290 26.7
2016-Jul-24 23:34 290 26.7
2016-Jul-24 23:30 290 26.7
2016-Jul-24 23:24 290 26.7
2016-Jul-24 23:19 290 26.7
2016-Jul-24 23:13 290 26.7
2016-Jul-24 23:09 290 26.7
2016-Jul-24 23:03 290 26.7
2016-Jul-24 22:59 290 0 gusting 1 26.7
2016-Jul-24 22:53 290 0 gusting 2 26.7
2016-Jul-24 22:49 290 1 gusting 2 26.7
2016-Jul-24 22:43 290 1 gusting 3 26.7
2016-Jul-24 22:39 289 1 gusting 3 26.7
2016-Jul-24 22:33 280 1 gusting 5 26.7
2016-Jul-24 22:29 279 1 gusting 5 27.2
2016-Jul-24 22:25 279 1 gusting 5 27.2
2016-Jul-24 22:19 284 1 gusting 5 27.2
2016-Jul-24 22:15 283 0 gusting 3 27.2
2016-Jul-24 22:09 299 1 gusting 3 27.8
2016-Jul-24 22:05 309 1 gusting 3 27.8
2016-Jul-24 21:58 311 2 gusting 6 27.8
2016-Jul-24 21:54 317 2 gusting 6 27.8
2016-Jul-24 21:48 314 1 gusting 4 27.8
2016-Jul-24 21:44 318 1 gusting 4 27.8
2016-Jul-24 21:38 296 0 gusting 4 27.8
2016-Jul-24 21:34 294 0 gusting 4 27.8
2016-Jul-24 21:28 292 1 gusting 4 27.8
2016-Jul-24 21:25 259 27.8
2016-Jul-24 21:18 224 0 gusting 3 27.8
2016-Jul-24 21:14 223 28.3
2016-Jul-24 21:08 222 27.8
2016-Jul-24 21:04 222 28.3
2016-Jul-24 20:58 221 0 gusting 2 28.3
2016-Jul-24 20:54 221 0 gusting 2 28.3
2016-Jul-24 20:49 221 28.3
2016-Jul-24 20:44 162 28.9
2016-Jul-24 20:38 162 28.9
2016-Jul-24 20:34 161 28.9
2016-Jul-24 20:28 162 28.9
2016-Jul-24 20:24 161 28.9
2016-Jul-24 20:18 161 28.9
2016-Jul-24 20:14 161 28.9
2016-Jul-24 20:10 160 28.9
2016-Jul-24 20:04 161 28.9
2016-Jul-24 20:00 161 28.9
2016-Jul-24 19:54 161 28.9
2016-Jul-24 19:48 160 28.9
2016-Jul-24 19:43 161 29.4
2016-Jul-24 19:39 160 29.4
2016-Jul-24 19:33 161 29.4
2016-Jul-24 19:29 161 29.4
2016-Jul-24 19:23 161 29.4
2016-Jul-24 19:20 161 28.9
2016-Jul-24 19:13 161 29.4
2016-Jul-24 19:09 160 29.4
2016-Jul-24 19:05 160 29.4
2016-Jul-24 18:59 161 29.4
2016-Jul-24 18:55 160 29.4
2016-Jul-24 18:49 161 29.4
2016-Jul-24 18:44 160 29.4
2016-Jul-24 18:39 161 0 gusting 2 28.9
2016-Jul-24 18:34 161 0 gusting 4 29.4
2016-Jul-24 18:29 161 0 gusting 4 29.4
2016-Jul-24 18:24 162 29.4
2016-Jul-24 18:18 162 0 gusting 5 29.4
2016-Jul-24 18:14 161 0 gusting 5 29.4
2016-Jul-24 18:08 159 1 gusting 7 29.4
2016-Jul-24 18:04 158 2 gusting 7 29.4
2016-Jul-24 17:58 161 1 gusting 5 29.4
2016-Jul-24 17:54 166 2 gusting 7 30.0
2016-Jul-24 17:48 162 2 gusting 7 30.0
2016-Jul-24 17:44 161 2 gusting 6 30.0
2016-Jul-24 17:38 172 2 gusting 6 30.6
2016-Jul-24 17:34 157 2 gusting 6 30.6
2016-Jul-24 17:28 169 2 gusting 6 30.6
2016-Jul-24 17:24 159 2 gusting 6 31.1
2016-Jul-24 17:18 172 2 gusting 5 31.1
2016-Jul-24 17:14 167 2 gusting 5 31.1
2016-Jul-24 17:10 167 3 gusting 7 31.7
2016-Jul-24 17:03 169 3 gusting 7 31.7
2016-Jul-24 16:57 171 2 gusting 7 32.2
2016-Jul-24 16:54 170 2 gusting 8 32.2
2016-Jul-24 16:50 178 3 gusting 8 32.2
2016-Jul-24 16:43 171 3 gusting 7 32.8
2016-Jul-24 16:40 190 4 gusting 9 32.8
2016-Jul-24 16:33 184 3 gusting 9 32.8
2016-Jul-24 16:29 178 3 gusting 7 33.3
2016-Jul-24 16:23 152 4 gusting 8 33.3
2016-Jul-24 16:19 169 4 gusting 8 33.3
2016-Jul-24 16:13 178 3 gusting 8 33.9
2016-Jul-24 16:09 209 3 gusting 8 33.9
2016-Jul-24 16:05 175 2 gusting 8 33.9
2016-Jul-24 15:59 167 4 gusting 9 33.9
2016-Jul-24 15:53 148 4 gusting 10 34.4
2016-Jul-24 15:49 165 4 gusting 11 34.4
2016-Jul-24 15:43 111 4 gusting 11 34.4
2016-Jul-24 15:39 163 5 gusting 11 34.4
2016-Jul-24 15:34 161 4 gusting 11 34.4
2016-Jul-24 15:29 175 4 gusting 9 35.0
2016-Jul-24 15:23 172 4 gusting 9 35.0
2016-Jul-24 15:19 157 4 gusting 9 35.0
2016-Jul-24 15:13 153 4 gusting 9 35.6
2016-Jul-24 15:09 156 3 gusting 8 35.6
2016-Jul-24 15:05 167 3 gusting 8 35.6
2016-Jul-24 14:59 159 4 gusting 9 35.6
2016-Jul-24 14:53 157 3 gusting 9 35.6
2016-Jul-24 14:49 186 4 gusting 8 35.6
2016-Jul-24 14:43 172 4 gusting 9 35.6
2016-Jul-24 14:39 141 3 gusting 9 35.6
2016-Jul-24 14:35 169 4 gusting 8 35.6
2016-Jul-24 14:28 168 4 gusting 9 35.6
2016-Jul-24 14:24 151 4 gusting 9 35.6
2016-Jul-24 14:18 199 4 gusting 10 35.6
2016-Jul-24 14:14 148 4 gusting 10 35.6
2016-Jul-24 14:08 175 5 gusting 10 35.6
2016-Jul-24 14:04 197 5 gusting 11 35.6
2016-Jul-24 13:58 182 4 gusting 11 35.6
2016-Jul-24 13:54 160 4 gusting 13 35.6
2016-Jul-24 13:50 181 4 gusting 13 35.6
2016-Jul-24 13:44 183 5 gusting 10 35.6
2016-Jul-24 13:38 186 5 gusting 10 35.6
2016-Jul-24 13:34 194 4 gusting 10 36.1
2016-Jul-24 13:30 198 4 gusting 9 36.1
2016-Jul-24 13:24 173 5 gusting 10 36.1
2016-Jul-24 13:17 163 5 gusting 9 36.1
2016-Jul-24 13:14 142 5 gusting 9 36.1
2016-Jul-24 13:09 145 5 gusting 9 36.7
2016-Jul-24 13:03 164 5 gusting 9 36.7
2016-Jul-24 12:59 173 5 gusting 9 36.7
2016-Jul-24 12:53 209 4 gusting 7 36.7
2016-Jul-24 12:49 194 3 gusting 8 36.7
2016-Jul-24 12:43 141 4 gusting 9 36.7
2016-Jul-24 12:39 203 5 gusting 9 36.7
2016-Jul-24 12:34 180 4 gusting 7 36.1
2016-Jul-24 12:29 180 5 gusting 9 36.7
2016-Jul-24 12:25 188 4 gusting 9 36.7
2016-Jul-24 12:18 200 4 gusting 12 36.7
2016-Jul-24 12:14 139 5 gusting 12 36.1
2016-Jul-24 12:08 220 5 gusting 9 36.1
2016-Jul-24 12:04 209 4 gusting 9 36.7
2016-Jul-24 11:58 167 4 gusting 8 36.7
2016-Jul-24 11:54 157 3 gusting 8 36.7
2016-Jul-24 11:48 199 4 gusting 7 36.7
2016-Jul-24 11:44 194 4 gusting 10 36.7
2016-Jul-24 11:40 161 4 gusting 10 36.7
2016-Jul-24 11:33 167 3 gusting 7 36.7
2016-Jul-24 11:30 175 3 gusting 7 36.7
2016-Jul-24 11:23 160 3 gusting 7 36.7
2016-Jul-24 11:19 183 3 gusting 7 36.7
2016-Jul-24 11:14 157 4 gusting 7 36.7
2016-Jul-24 11:10 175 4 gusting 7 36.1
2016-Jul-24 11:03 202 4 gusting 8 36.1
2016-Jul-24 10:57 175 4 gusting 8 36.1
2016-Jul-24 10:53 176 3 gusting 8 36.1
2016-Jul-24 10:49 212 3 gusting 8 36.7
2016-Jul-24 10:43 217 3 gusting 7 36.1
2016-Jul-24 10:39 198 3 gusting 8 36.1
2016-Jul-24 10:35 211 4 gusting 8 35.6
2016-Jul-24 10:29 202 5 gusting 8 35.0
2016-Jul-24 10:24 222 4 gusting 8 35.0
2016-Jul-24 10:19 234 4 gusting 8 35.6
2016-Jul-24 10:14 209 4 gusting 8 35.6
2016-Jul-24 10:08 169 3 gusting 7 35.0
2016-Jul-24 10:04 190 5 gusting 9 35.0
2016-Jul-24 09:58 204 5 gusting 9 34.4
2016-Jul-24 09:54 224 4 gusting 8 35.0
2016-Jul-24 09:48 223 3 gusting 6 35.0
2016-Jul-24 09:44 157 4 gusting 7 35.0
2016-Jul-24 09:38 202 3 gusting 7 35.0
2016-Jul-24 09:34 232 2 gusting 6 34.4
2016-Jul-24 09:28 244 3 gusting 7 34.4
2016-Jul-24 09:24 187 3 gusting 8 34.4
2016-Jul-24 09:19 180 3 gusting 8 33.9
2016-Jul-24 09:14 209 3 gusting 9 34.4
2016-Jul-24 09:08 228 3 gusting 9 34.4
2016-Jul-24 09:04 200 4 gusting 8 34.4
2016-Jul-24 08:58 219 3 gusting 8 34.4
2016-Jul-24 08:54 219 2 gusting 6 34.4
2016-Jul-24 08:48 159 1 gusting 5 33.9
2016-Jul-24 08:44 205 1 gusting 5 33.9
2016-Jul-24 08:40 207 1 gusting 5 33.9
2016-Jul-24 08:34 213 0 gusting 4 33.3
2016-Jul-24 08:30 182 1 gusting 4 33.3
2016-Jul-24 08:24 183 1 gusting 4 32.8
2016-Jul-24 08:18 239 1 gusting 6 32.2
2016-Jul-24 08:14 240 2 gusting 6 32.2
2016-Jul-24 08:09 226 2 gusting 5 32.2
2016-Jul-24 08:03 234 2 gusting 6 31.7